Wind_Speed
51 51 51 50 48 48 47 47 46 45 44 44 43 42 41 41 41 42 42 41 41 41 40 40 40 39 39 39 40 39 39 39 39 39 40 40 41 41 42 43 44 45 44
50 51 51 51 51 50 49 48 47 47 46 46 45 44 43 43 43 43 44 44 44 44 44 43 42 42 42 43 43 42 41 41 42 42 43 42 42 42 43 44 44 45 45
49 49 50 50 50 50 50 50 49 48 48 47 47 47 46 46 46 46 45 45 46 46 47 47 46 45 45 45 45 45 44 44 44 45 46 46 45 46 45 44 44 44 44
49 49 49 50 50 51 50 50 51 50 50 50 50 49 49 48 48 48 48 48 48 48 48 49 49 48 48 48 48 48 47 47 47 47 47 48 49 48 47 46 45 45 45
49 50 51 50 50 50 50 50 51 51 51 51 51 51 51 51 50 49 50 50 49 50 50 51 51 51 51 51 51 51 50 49 49 48 48 49 48 48 48 47 46 46 45
48 49 50 50 50 50 50 51 51 51 51 51 51 51 52 51 51 52 52 52 51 51 51 51 52 53 53 53 53 52 51 50 49 50 49 49 48 48 47 47 46 46 45
46 47 49 49 49 50 50 50 51 51 51 51 51 51 51 52 52 53 53 52 52 52 52 52 52 52 52 52 51 51 50 50 50 50 49 49 48 48 47 47 46 46 45
42 44 45 46 47 49 50 50 51 51 52 52 51 51 51 51 51 52 52 52 52 52 53 53 52 52 52 51 51 50 50 50 50 50 49 48 47 47 47 47 46 45 44
40 42 42 43 44 46 47 49 50 50 51 52 53 53 53 53 53 53 54 53 53 53 53 52 52 51 51 51 51 51 50 50 50 49 49 48 48 47 47 46 45 44 43
37 38 39 40 41 42 44 46 47 48 50 51 52 52 53 54 54 54 53 53 53 53 52 52 51 51 50 51 50 50 49 49 49 48 48 47 47 46 45 44 43 42 42
35 36 37 38 39 40 41 43 44 46 47 47 48 49 50 51 51 51 52 52 51 51 50 50 50 50 50 50 49 49 48 48 47 47 46 45 45 44 44 43 42 41 40
33 34 36 37 38 38 39 41 42 43 44 45 45 46 47 47 48 48 49 49 49 50 50 49 48 48 48 48 47 47 47 47 47 46 45 44 44 44 43 42 40 40 39
33 34 35 36 36 37 38 38 39 40 42 43 44 45 45 46 46 47 47 47 48 48 48 48 47 47 47 46 46 46 46 46 46 45 45 44 44 43 42 40 39 38 37
32 33 34 34 35 35 36 37 37 37 38 40 41 42 43 43 44 44 45 46 46 47 47 46 46 46 46 46 46 46 46 45 45 44 44 43 42 40 39 38 37 36 36
31 32 32 34 34 34 35 35 36 36 36 37 38 39 40 41 41 42 43 44 44 45 44 44 44 44 44 44 44 44 44 43 43 42 42 41 39 38 38 36 35 35 34
31 32 32 33 34 34 34 35 35 36 36 36 37 37 38 39 40 40 40 40 41 41 41 41 42 42 42 42 42 42 42 41 41 40 39 38 37 36 35 35 34 33 33
32 32 32 33 33 33 34 34 35 35 35 35 36 36 36 37 37 38 38 38 38 39 39 39 40 40 40 40 40 39 39 38 37 37 36 35 35 34 33 33 32 32 32
31 31 32 32 32 32 33 34 34 34 34 35 35 36 36 36 36 37 37 37 38 38 38 38 38 38 38 38 37 37 36 35 34 34 34 33 32 32 31 31 31 31 30
29 30 31 31 31 32 32 33 33 33 34 34 35 35 35 35 36 36 36 36 36 36 36 35 35 35 35 35 34 34 34 33 33 32 32 32 31 31 31 30 30 30 30
29 29 30 30 31 31 31 31 32 32 33 34 34 34 34 34 35 35 35 35 34 34 34 33 33 33 33 32 32 32 32 31 31 31 30 30 30 29 29 29 29 29 29
29 29 29 30 30 30 30 30 31 31 32 32 32 33 33 33 33 33 33 33 33 32 32 32 32 31 31 31 31 30 30 29 29 29 29 29 29 29 29 28 28 29 29
29 29 29 29 30 30 30 30 30 31 31 31 31 31 31 31 32 32 32 31 31 31 31 31 30 30 29 29 29 29 29 28 28 28 28 28 28 28 28 28 28 29 29
28 29 29 29 29 30 30 30 30 30 30 30 30 30 31 31 31 31 31 31 31 31 30 30 29 29 29 29 28 28 28 28 28 28 28 28 28 28 28 28 29 29 30
27 28 29 29 30 30 30 30 31 31 30 31 31 31 31 30 30 30 30 30 30 30 30 29 29 28 28 28 28 28 28 28 28 28 28 28 28 28 29 29 30 30 31
27 27 28 28 29 30 30 30 31 31 31 31 31 31 31 30 30 31 30 30 30 29 28 28 27 27 28 28 28 27 27 27 27 27 28 28 29 29 29 30 30 31 31
27 27 27 27 27 28 28 29 30 30 30 31 31 31 31 31 31 30 30 29 29 28 28 28 28 28 28 28 28 28 28 28 28 28 29 29 30 30 31 31 32 32 33
Wind_Direction
234 235 235 235 237 239 241 243 244 246 249 251 253 255 258 259 260 262 263 265 267 268 270 272 274 276 278 280 281 283 285 286 288 290 291 293 295 296 297 299 300 301 302
236 236 237 238 238 239 241 243 245 247 249 250 252 255 257 259 261 263 265 266 268 269 270 272 274 276 278 280 281 282 284 286 288 289 291 291 292 293 295 297 298 299 300
237 238 239 239 240 241 242 244 246 247 249 251 252 254 256 258 260 262 265 267 269 270 270 272 273 276 278 279 280 281 283 285 287 289 290 291 291 292 294 295 296 297 298
239 240 241 241 242 243 244 245 246 247 249 251 253 254 256 258 260 262 265 266 267 270 272 273 274 276 276 278 279 281 283 284 286 287 288 290 291 292 293 294 296 296 297
242 244 244 243 244 245 246 246 247 248 250 252 253 255 257 259 261 263 264 265 267 269 272 273 274 275 276 278 279 280 282 283 285 286 287 289 290 291 292 293 295 296 296
243 244 245 245 245 246 247 248 249 250 251 253 254 257 258 260 261 263 265 266 267 269 272 273 274 275 276 277 277 278 280 282 283 285 286 288 289 290 291 292 293 294 295
243 244 246 246 246 247 249 250 251 252 253 255 256 257 259 261 262 264 266 266 268 270 271 273 274 275 276 276 277 277 279 281 282 284 285 287 288 289 290 291 292 293 293
246 246 247 247 247 247 248 249 251 252 253 255 256 258 260 262 263 264 266 267 269 270 271 272 273 275 276 277 277 279 280 281 282 284 285 286 287 288 289 290 291 291 291
249 250 250 250 250 249 249 250 251 252 254 255 256 258 260 261 264 266 267 268 269 270 271 272 274 275 276 277 278 279 280 281 282 283 284 285 285 287 288 288 289 290 290
251 252 253 253 252 251 250 250 251 252 253 255 257 258 260 262 263 265 266 268 270 271 273 273 274 275 276 277 278 279 280 281 281 282 282 283 284 285 286 287 288 289 290
251 252 252 253 253 253 252 252 252 253 255 256 257 259 261 262 264 265 266 268 269 271 273 273 274 275 276 277 278 279 280 280 281 282 282 283 284 284 285 286 287 288 289
251 251 251 252 253 254 254 254 255 256 256 257 258 260 261 262 264 265 266 268 269 271 272 273 274 275 276 276 277 278 278 279 280 280 280 281 282 283 284 284 285 286 287
251 251 251 252 253 254 255 255 256 256 257 258 259 261 263 264 266 267 268 269 270 272 273 273 274 275 275 276 276 277 277 278 279 279 280 281 281 281 282 282 284 285 286
253 252 251 252 253 254 254 256 256 257 258 259 260 261 263 264 266 267 268 269 270 272 273 274 274 274 275 275 276 276 276 277 278 278 279 279 279 280 280 281 283 284 285
253 253 253 252 253 254 255 256 256 258 259 260 260 262 263 264 266 267 268 270 271 272 273 274 274 274 274 274 275 275 276 276 277 277 277 277 277 277 278 280 281 283 284
254 253 253 253 254 254 254 255 256 258 259 260 261 262 264 265 266 267 269 271 272 272 273 273 274 274 274 274 274 275 276 276 277 277 276 276 276 277 277 279 280 281 283
255 254 254 255 255 255 255 255 256 257 258 259 260 262 264 266 268 269 270 272 272 272 273 273 273 273 273 274 274 274 274 275 275 275 274 274 275 276 277 278 279 280 282
255 255 255 255 256 256 256 255 256 257 258 259 261 263 265 267 268 269 270 271 272 273 273 273 273 274 274 274 273 273 273 273 273 273 273 274 274 275 276 277 278 280 281
257 257 256 257 257 257 257 256 256 257 258 260 261 263 265 267 268 269 270 271 272 273 273 273 273 273 273 274 273 272 272 272 273 273 273 273 273 274 275 276 278 279 280
257 257 257 257 258 258 257 257 257 257 259 261 262 264 265 267 268 269 270 270 271 272 272 273 273 273 273 273 273 272 272 272 272 272 272 272 273 274 275 276 277 279 280
257 257 257 257 257 257 257 257 257 258 260 261 262 263 265 266 268 269 269 270 271 272 273 273 272 272 273 273 272 272 273 272 271 271 272 272 273 274 275 276 277 279 281
257 257 257 257 257 257 257 258 258 258 260 261 262 263 265 267 268 269 270 271 272 272 273 273 272 272 272 272 272 272 271 271 271 272 272 273 274 274 274 276 278 280 282
258 257 257 257 257 257 257 257 258 259 260 261 263 264 266 267 268 269 269 271 272 272 273 273 272 272 271 271 271 272 272 272 271 272 272 273 273 273 275 276 279 281 282
259 258 258 257 257 257 257 257 258 259 261 262 263 265 266 266 267 269 270 271 271 271 271 272 272 272 271 270 270 271 271 272 272 272 272 272 273 274 275 278 280 282 283
260 260 259 259 258 256 256 258 259 260 261 262 263 264 265 267 268 269 270 271 271 271 271 270 270 271 270 270 270 271 271 271 272 273 273 273 274 275 276 278 280 282 284
261 260 260 260 258 257 258 259 260 261 261 262 262 264 266 267 268 268 269 269 270 269 269 269 270 270 271 270 270 270 271 272 272 273 273 274 275 276 278 279 280 283 285
Height
5774 5779 5784 5790 5794 5798 5802 5806 5810 5813 5816 5818 5820 5823 5825 5826 5828 5829 5830 5831 5832 5833 5834 5834 5834 5835 5834 5834 5834 5833 5832 5831 5830 5829 5828 5826 5824 5822 5819 5816 5813 5810 5807
5766 5771 5776 5781 5786 5790 5794 5798 5801 5805 5807 5810 5813 5815 5817 5818 5820 5821 5822 5823 5824 5825 5825 5826 5826 5826 5826 5826 5825 5824 5824 5823 5821 5820 5819 5818 5817 5814 5811 5808 5805 5802 5798
5758 5762 5767 5772 5777 5781 5786 5789 5793 5796 5799 5802 5804 5806 5808 5809 5811 5813 5813 5814 5815 5815 5816 5817 5817 5817 5817 5816 5816 5815 5814 5814 5812 5810 5809 5807 5806 5805 5803 5800 5797 5793 5790
5750 5754 5759 5764 5768 5773 5777 5780 5784 5787 5790 5792 5795 5797 5799 5801 5802 5803 5805 5805 5806 5807 5807 5807 5807 5807 5807 5807 5806 5806 5805 5804 5803 5801 5799 5797 5795 5793 5792 5790 5787 5784 5781
5742 5746 5750 5755 5759 5763 5767 5771 5774 5777 5780 5783 5785 5787 5789 5791 5792 5794 5795 5796 5796 5797 5797 5797 5797 5797 5797 5797 5796 5795 5794 5793 5792 5791 5789 5787 5785 5783 5781 5780 5777 5774 5771
5734 5737 5741 5746 5751 5754 5758 5761 5764 5768 5770 5772 5775 5777 5779 5780 5782 5783 5784 5785 5786 5786 5787 5787 5786 5786 5786 5786 5785 5784 5784 5783 5782 5780 5779 5777 5775 5773 5770 5769 5767 5764 5761
5725 5728 5732 5736 5741 5744 5748 5751 5754 5757 5760 5762 5764 5766 5768 5770 5771 5773 5774 5775 5775 5776 5776 5775 5776 5775 5775 5775 5774 5773 5773 5772 5771 5769 5768 5766 5764 5762 5760 5758 5756 5754 5751
5716 5720 5723 5727 5731 5734 5737 5741 5744 5747 5749 5752 5754 5756 5757 5759 5760 5761 5762 5763 5764 5764 5764 5764 5764 5764 5764 5763 5763 5762 5762 5761 5760 5758 5757 5755 5753 5752 5750 5748 5745 5743 5741
5708 5711 5714 5717 5721 5724 5727 5730 5733 5736 5739 5741 5743 5745 5746 5748 5749 5750 5751 5752 5752 5753 5753 5753 5753 5752 5752 5752 5752 5751 5750 5749 5748 5747 5746 5744 5743 5741 5739 5737 5735 5733 5731
5700 5702 5705 5708 5711 5714 5717 5720 5722 5725 5728 5730 5732 5734 5735 5736 5738 5739 5740 5740 5741 5741 5741 5741 5741 5741 5741 5740 5740 5739 5738 5738 5737 5736 5735 5733 5732 5730 5728 5726 5724 5722 5720
5692 5694 5696 5699 5702 5705 5707 5710 5712 5715 5717 5719 5721 5722 5724 5725 5726 5727 5728 5728 5729 5729 5730 5730 5730 5729 5729 5729 5728 5728 5727 5726 5725 5724 5723 5722 5720 5719 5717 5716 5714 5712 5710
5683 5685 5688 5690 5693 5695 5697 5700 5702 5704 5706 5708 5710 5711 5712 5713 5714 5715 5716 5717 5717 5718 5718 5718 5718 5718 5717 5717 5717 5716 5716 5715 5714 5713 5712 5711 5710 5708 5707 5705 5703 5702 5700
5674 5677 5679 5681 5684 5686 5688 5690 5692 5694 5696 5697 5699 5701 5701 5703 5703 5704 5705 5705 5706 5706 5706 5706 5706 5706 5706 5705 5705 5704 5704 5703 5702 5701 5700 5699 5698 5697 5696 5695 5693 5692 5690
5666 5668 5670 5672 5674 5676 5679 5681 5682 5684 5685 5687 5689 5690 5691 5692 5693 5693 5694 5694 5694 5695 5695 5694 5694 5694 5694 5693 5693 5693 5692 5691 5691 5690 5689 5688 5687 5686 5685 5684 5683 5682 5681
5657 5659 5661 5663 5665 5667 5669 5671 5673 5674 5675 5677 5678 5680 5681 5681 5682 5682 5683 5683 5683 5683 5683 5683 5683 5682 5682 5681 5681 5681 5680 5680 5679 5679 5678 5677 5676 5676 5675 5674 5674 5673 5672
5649 5650 5652 5654 5656 5658 5659 5661 5663 5664 5666 5667 5668 5669 5670 5671 5671 5672 5672 5672 5672 5672 5672 5672 5671 5671 5670 5670 5670 5669 5669 5668 5668 5668 5667 5667 5666 5666 5665 5665 5664 5663 5663
5639 5641 5643 5645 5646 5648 5650 5652 5653 5654 5656 5657 5658 5659 5660 5660 5661 5661 5662 5662 5661 5661 5661 5661 5660 5660 5659 5659 5658 5658 5658 5658 5657 5657 5657 5656 5656 5656 5656 5655 5655 5654 5653
5630 5632 5634 5635 5637 5639 5640 5642 5644 5645 5646 5647 5648 5649 5650 5650 5651 5651 5651 5651 5651 5651 5650 5650 5650 5649 5649 5648 5648 5648 5648 5648 5647 5647 5647 5647 5647 5647 5647 5646 5646 5645 5645
5621 5623 5625 5626 5628 5630 5631 5633 5634 5635 5637 5638 5639 5639 5640 5640 5641 5641 5641 5641 5641 5641 5640 5640 5640 5639 5639 5638 5638 5638 5638 5638 5638 5638 5638 5638 5638 5638 5638 5638 5637 5636 5636
5613 5614 5616 5617 5619 5620 5622 5623 5625 5626 5627 5628 5629 5630 5630 5631 5631 5631 5631 5631 5631 5631 5631 5630 5630 5630 5629 5629 5629 5629 5629 5629 5629 5629 5629 5629 5629 5629 5629 5629 5628 5628 5627
5604 5605 5607 5608 5610 5611 5613 5614 5615 5617 5618 5618 5619 5620 5621 5621 5622 5622 5622 5622 5622 5622 5621 5621 5621 5620 5620 5620 5620 5620 5620 5620 5620 5620 5621 5621 5621 5620 5620 5620 5620 5619 5618
5596 5597 5598 5600 5601 5603 5604 5605 5606 5608 5609 5610 5610 5611 5611 5612 5612 5613 5613 5613 5613 5613 5612 5612 5612 5612 5611 5611 5611 5611 5612 5612 5612 5612 5612 5612 5612 5612 5612 5611 5611 5610 5609
5587 5588 5590 5591 5593 5594 5595 5597 5598 5599 5600 5601 5601 5602 5603 5603 5603 5604 5604 5604 5604 5604 5603 5603 5603 5603 5603 5603 5603 5603 5603 5603 5604 5604 5604 5604 5604 5603 5603 5603 5602 5601 5600
5579 5580 5581 5582 5584 5585 5586 5588 5589 5590 5591 5592 5593 5593 5594 5594 5594 5595 5595 5595 5595 5595 5595 5594 5594 5594 5594 5594 5595 5595 5595 5595 5595 5596 5596 5596 5595 5595 5594 5594 5593 5592 5591
5571 5572 5573 5574 5575 5576 5577 5579 5580 5581 5582 5583 5584 5584 5585 5585 5586 5586 5586 5586 5586 5586 5586 5586 5586 5586 5586 5586 5587 5587 5587 5587 5587 5587 5587 5587 5587 5586 5586 5585 5584 5583 5582
5563 5564 5564 5565 5566 5567 5569 5570 5570 5572 5573 5574 5575 5575 5576 5576 5576 5577 5577 5577 5577 5577 5577 5577 5578 5578 5578 5578 5578 5578 5578 5578 5579 5579 5578 5578 5577 5577 5576 5575 5574 5573 5572